Location: ???????
(31.1724°N, 45.7474°E)
Time: 09:18:24
(UTC+00:00)

Daily predictions for brighter satellites

Satellite Brightness Start Highest point End
(mag) Time Altitude Azimuth Time Altitude Azimuth Time Altitude Azimuth
STARLINK-1110 3.7 15:34:44 10° NW 15:38:52 86° SW 15:43:00 10° SE
ATLAS 3B CENTAUR R/B 4.3 15:32:26 10° W 15:41:05 25° SW 15:45:49 10° SSE
Delta 128 3.9 15:37:40 10° WSW 15:42:09 60° S 15:47:09 10° E
STARLINK-1124 3.8 15:39:44 10° NW 15:43:51 77° SW 15:47:58 10° SE
CZ-3 Stage 3 3.4 15:39:28 10° WSW 15:44:15 69° SSE 16:08:34 10° E
CZ-2D R/B 3.2 15:41:18 10° SSE 15:45:06 82° ENE 15:48:54 10° N
Cosmos 1455 Rocket 4.5 15:41:54 10° SSW 15:46:01 44° W 15:50:12 10° N
YAOGAN 1 2.7 15:43:43 10° S 15:48:02 85° W 15:52:22 10° NNW
STARLINK-1122 3.9 15:44:42 10° NW 15:48:49 68° SW 15:52:54 10° SSE
Cosmos 1726 3.4 15:46:10 10° SE 15:49:00 21° E 15:51:51 10° NE
Cosmos 1603 3.7 15:44:32 10° S 15:50:07 68° ESE 15:55:41 10° NNE
Orbus 7S? 2.7 15:50:28 10° NW 15:52:53 61° SW 15:55:36 10° SSE
STARLINK-1126 4.1 15:49:42 10° NW 15:53:46 60° SW 15:57:50 10° SSE
Cosmos 2315 Rocket 4.1 15:49:29 10° S 15:55:47 88° E 16:02:11 10° N
USA 234 3.8 15:50:08 10° ENE 15:56:01 35° SE 16:01:52 10° S
BREEZE-M DEB (TANK) 3.3 15:48:17 10° NW 15:56:41 47° NNE 15:59:10 13° ESE
STARLINK-60 3.0 15:54:07 10° SSW 15:57:21 62° SE 16:00:35 10° NE
Ariane Rocket 3.7 15:53:00 10° SE 15:57:33 34° ENE 16:02:05 10° N
STARLINK-1082 4.3 15:54:42 10° NW 15:58:45 52° SW 16:02:45 10° SSE
SL-14 R/B 3.3 15:55:15 10° N 15:59:16 85° W 16:03:13 10° S
STARLINK-29 4.2 15:59:07 10° S 16:01:38 22° SE 16:03:30 14° E
Cosmos 1626 Rocket 3.5 15:57:42 10° N 16:02:00 59° E 16:06:15 10° SSE
ISS -1.7 16:00:15 10° N 16:02:25 16° NE 16:04:15 11° ENE
Cosmos 2297 4.0 15:59:30 10° NNW 16:05:10 71° WSW 16:10:51 10° S
Aureole 3 3.6 16:01:14 10° S 16:05:15 68° E 16:10:26 10° N
USA 186 3.2 16:03:36 14° ESE 16:05:32 22° ENE 16:08:10 10° NNE
GEOS 3 Rocket 3.8 16:01:11 10° SE 16:06:06 51° NE 16:11:07 10° NNW
Cosmos 1758 3.9 16:02:13 10° SSW 16:06:16 63° W 16:10:19 10° N
ATLAS 5 CENTAUR R/B 2.4 16:06:05 10° SSE 16:09:17 23° ESE 16:12:36 10° ENE
Cosmos 1709 Rocket 4.0 16:05:40 10° N 16:11:49 88° W 16:17:55 10° S
Cosmos 1602 Rocket 3.6 16:08:16 10° N 16:12:38 60° E 16:16:55 10° SSE
FREGAT/IRIS 3.5 16:13:03 23° E 16:13:29 24° ENE 16:15:45 10° NNE
HJ-1C 3.3 16:12:18 10° S 16:15:38 87° WSW 16:18:59 10° NNW
STARLINK-1098 4.4 16:12:09 10° NNW 16:16:00 36° NE 16:18:12 21° E
SL-4 R/B 3.5 16:13:41 10° WSW 16:16:43 29° NW 16:19:44 10° NNE
TSX-5 3.9 16:14:39 10° NNW 16:18:55 72° WSW 16:22:21 10° SSE
CZ-4 R/B 4.0 16:17:54 10° SSW 16:20:50 21° W 16:23:46 10° NW
STARLINK-1123 4.3 16:17:05 10° NNW 16:21:00 40° NE 16:22:59 24° E
IRS-1A Rocket 4.3 16:18:04 10° SSE 16:23:37 62° ENE 16:29:18 10° N
Cosmos 614 Rocket 4.2 16:18:52 10° S 16:23:48 44° ESE 16:28:45 10° NNE
STARLINK-1097 4.1 16:21:58 10° NNW 16:25:57 45° NE 16:27:44 27° E
Cosmos 1626 4.0 16:24:12 10° NNW 16:27:31 31° W 16:30:49 10° SSW
Cosmos 2074 Rocket 4.3 16:21:49 10° N 16:27:47 45° E 16:33:00 14° SSE
Hubble Space Telescope 2.1 16:25:15 10° SSW 16:28:29 22° SSE 16:29:04 22° SSE
Cosmos 1825 Rocket 4.3 16:25:47 10° NNE 16:29:41 31° E 16:30:41 28° ESE
Cosmos 292 Rocket 3.7 16:25:30 10° N 16:30:16 63° ENE 16:33:42 19° SSE
Cosmos 1943 Rocket 2.1 16:24:50 10° NNW 16:30:24 73° ENE 16:35:03 15° SSE
STARLINK-1099 3.9 16:26:55 10° NNW 16:30:57 50° NE 16:32:31 31° ESE
Cosmos 2369 Rocket 2.3 16:26:14 10° N 16:31:47 54° ENE 16:35:13 23° SE
Cosmos 407 Rocket 3.7 16:29:33 10° S 16:34:28 46° ESE 16:39:21 10° NNE
STARLINK-1104 3.8 16:31:52 10° NW 16:35:56 56° NE 16:37:18 36° ESE
SL-24 R/B 3.8 16:34:33 10° NNE 16:38:23 52° E 16:40:30 22° SSE
IRIDIUM 106 4.2 16:34:08 10° N 16:39:21 73° E 16:44:32 10° S
STARLINK-1144 3.6 16:36:49 10° NW 16:40:56 63° NE 16:42:06 42° ESE
Cosmos 2228 2.9 16:37:50 10° S 16:42:03 68° E 16:46:20 10° NNE
Cosmos 1953 3.6 16:38:22 10° SSW 16:42:07 42° W 16:45:54 10° N
STARLINK-52 2.8 16:39:05 10° SSW 16:42:09 63° SE 16:42:09 63° SE
Cosmos 2084 Rocket 3.5 16:37:47 10° NNW 16:42:16 81° WSW 16:44:35 28° SSE
Cosmos 1758 Rocket 3.5 16:38:11 10° N 16:42:26 56° E 16:43:59 35° SE
CZ-2C R/B 3.6 16:39:11 10° NNE 16:43:51 71° ESE 16:48:24 10° S
Cosmos 1606 Rocket 3.4 16:39:40 10° S 16:44:03 78° E 16:48:30 10° N
Cosmos 1992 Rocket 3.9 16:40:35 10° NNW 16:45:47 81° ENE 16:48:58 24° SSE
STARLINK-1103 3.5 16:41:46 10° NW 16:45:54 71° NE 16:46:52 49° ESE
Cosmos 1943 4.3 16:43:01 10° SW 16:48:24 45° WNW 16:53:50 10° N
Cosmos 1908 3.1 16:47:21 36° SSE 16:48:44 66° E 16:52:34 10° NNE
Cosmos 1953 Rocket 4.3 16:45:52 10° NNE 16:49:36 35° ENE 16:49:36 35° ENE
STARLINK-1101 3.5 16:46:45 10° NW 16:50:54 81° NE 16:51:41 57° ESE
SL-08 RB Rocket 3.7 16:49:48 41° SE 16:51:09 60° ENE 16:55:39 10° N
Cosmos 2263 4.2 16:46:05 10° N 16:51:35 57° ENE 16:53:24 39° SE
CZ-2C R/B 2.9 16:48:25 14° S 16:52:47 82° WSW 16:57:37 10° NNW
Cosmos 1437 3.6 16:51:40 10° N 16:53:40 38° N 16:53:40 38° N
STARLINK-1102 3.5 16:51:42 10° NW 16:55:51 90° SSE 16:56:26 65° SE
SEDSat Delta rocket 2.9 16:52:50 10° W 16:57:50 83° S 16:58:36 61° ESE
CZ-3A R/B 4.0 16:31:38 10° W 16:59:01 43° SW 17:03:27 24° SSE
STARLINK-1111 3.5 16:56:40 10° NW 17:00:48 80° SW 17:01:13 70° SSE
H-2A R/B 2.6 16:57:43 10° S 17:02:55 57° W 17:08:00 10° NNW
Cosmos 2327 Rocket 4.5 16:58:40 10° N 17:04:58 64° E 17:07:19 39° SSE
ATLAS 5 CENTAUR R/B 3.4 17:00:18 10° SW 17:05:34 40° SSE 17:09:31 32° ESE
STARLINK-1073 3.6 17:01:40 10° NW 17:05:47 71° SW 17:06:00 69° SSW
Cosmos 1023 Rocket 4.3 17:01:33 10° S 17:06:43 73° ESE 17:11:52 10° NNE
Aureole 2 Rocket 4.1 17:06:40 10° NW 17:09:38 28° W 17:10:26 25° SW
STARLINK-1121 3.8 17:06:40 10° NW 17:10:45 62° SW 17:10:47 62° SW
STARLINK-1106 4.1 17:11:41 10° NW 17:15:35 54° WSW 17:15:35 54° WSW
MetOp-A 4.0 17:15:02 63° SE 17:15:53 78° ENE 17:21:15 10° N
Resurs 1-3 4.0 17:18:15 52° NNE 17:18:15 52° NNE 17:21:41 10° N
ARGOS 3.9 17:13:40 16° S 17:17:47 51° W 17:23:01 10° NNW
Cosmos 1656 Rocket 3.6 17:12:36 10° NNW 17:18:11 62° ENE 17:18:14 62° ENE
CZ-2C R/B 2.5 17:15:10 10° N 17:20:21 84° WNW 17:23:04 29° SSW
STARLINK-1112 4.4 17:16:41 10° NW 17:20:21 47° WSW 17:20:21 47° WSW
Cosmos 2184 Rocket 4.5 17:20:22 10° NNW 17:26:29 57° W 17:30:50 19° SSW
SJ-6B 4.4 17:26:24 30° SW 17:27:23 34° W 17:31:09 10° NNW
USA 234 4.0 17:32:46 10° NNE 17:39:01 51° NW 17:45:18 10° WSW
Cosmos 2058 Rocket 4.0 17:39:24 46° WNW 17:39:24 46° WNW 17:43:36 10° N
ISS -0.9 17:36:11 10° WNW 17:37:15 18° WNW 17:37:15 18° WNW
Resurs 01 Rocket 3.2 17:44:08 31° NNW 17:44:08 31° NNW 17:46:26 10° NNW
ATLAS 2AS CENTAUR R/B 2.9 17:35:33 10° NNW 17:42:32 56° NE 17:42:32 56° NE
Cosmos 2154 Rocket 4.4 17:42:30 10° NNW 17:48:45 62° W 17:50:02 51° SW
ATLAS 5 CENTAUR R/B 3.8 17:50:31 10° WSW 17:53:43 22° NW 17:57:08 10° N
COSMOS 2455 4.2 18:10:22 10° NNW 18:13:30 30° N 18:13:30 30° N
Cosmos 2237 Rocket 4.4 23:03:39 10° NNE 23:07:43 20° ENE 23:08:00 20° ENE
Cosmos 2297 Rocket 4.0 23:24:04 26° NE 23:24:04 26° NE 23:26:32 10° NNE
Cosmos 2227 Rocket 3.4 23:49:33 36° NNE 23:49:33 36° NNE 23:52:47 10° NNE
ATLAS 3B R/B 3.9 23:49:25 29° SE 23:50:38 31° ESE 23:56:19 10° NE
USA 267 4.0 23:47:47 10° NNE 23:53:00 41° NNW 23:53:00 41° NNW
